Weather History for Buffalo, WY

Change the Weather History Date:

Wednesday, September 4, 2013

  Actual Average Record
Temperature  
Mean Temperature 80 °F 64 °F  
Max Temperature 94 °F 78 °F 98 °F (1998)
Min Temperature 66 °F 50 °F 40 °F (1999)
Degree Days  
Heating Degree Days 0 4  
Month to date heating degree days 0 15  
Since 1 July heating degree days 1 80  
Cooling Degree Days 15 3  
Month to date cooling degree days 43 13  
Year to date cooling degree days 657 459  
Growing Degree Days 30 (Base 50)    
Moisture  
Dew Point 49 °F    
Average Humidity 37    
Maximum Humidity 52    
Minimum Humidity 22    
Precipitation  
Precipitation T in 0.04 in 0.59 in (1999)
Month to date precipitation 0.04 0.14  
Year to date precipitation 4.46 10.41  
Sea Level Pressure  
Sea Level Pressure 29.99 in    
Wind  
Wind Speed 7 mph (NW)    
Max Wind Speed 17 mph    
Max Gust Speed 25 mph    
Visibility 10 miles    
Events      
T = Trace of Precipitation, MM = Missing Value Source: NWS Daily Summary

Daily Weather History Graph

Daily Weather History Graph

Search for Another Location

Airport:

Trip Planner

Search our weather history database for the weather conditions in past years. The results will help you decide how hot, cold, wet, or windy it might be!

Date:

Astronomy

Sep. 04, 2013 Rise Set
Actual Time 6:33 AM MDT 7:37 PM MDT
Civil Twilight 6:03 AM MDT 8:06 PM MDT
Nautical Twilight 5:28 AM MDT 8:42 PM MDT
Astronomical Twilight 4:50 AM MDT 9:19 PM MDT
Moon 5:48 AM MDT (9/4) 6:56 PM MDT (9/4)
Length of Visible Light 14h 03m
Length of Day
13h 03m
Waning Crescent, 1% of the Moon is Illuminated
Sep 4
Waning Crescent
Sep 5
New
Sep 12
First Quarter
Sep 19
Full
Sep 26
Last Quarter

Hourly Weather History & Observations

Time (MDT) Temp. Dew Point Humidity Pressure Visibility Wind Dir Wind Speed Gust Speed Precip Events Conditions
12:53 AM 66.0 °F 48.9 °F 54% 29.98 in 10.0 mi WSW 6.9 mph - N/A   Clear
1:53 AM 70.0 °F 48.9 °F 47% 29.97 in 10.0 mi West 8.1 mph - N/A   Clear
2:53 AM 72.0 °F 48.9 °F 44% 29.96 in 10.0 mi South 3.5 mph - N/A   Clear
3:53 AM 70.0 °F 50.0 °F 49% 29.97 in 10.0 mi NW 9.2 mph - N/A   Scattered Clouds
4:53 AM 70.0 °F 48.9 °F 47% 29.99 in 10.0 mi WNW 9.2 mph - 0.00 in   Partly Cloudy
5:53 AM 70.0 °F 50.0 °F 49% 29.99 in 10.0 mi SW 4.6 mph - N/A   Mostly Cloudy
6:53 AM 68.0 °F 48.9 °F 50% 30.01 in 10.0 mi South 4.6 mph - N/A   Clear
7:53 AM 72.0 °F 50.0 °F 46% 30.04 in 10.0 mi Calm Calm - N/A   Clear
8:53 AM 75.9 °F 48.9 °F 38% 30.05 in 10.0 mi East 5.8 mph - N/A   Clear
9:53 AM 79.0 °F 48.9 °F 35% 30.04 in 10.0 mi Calm Calm - N/A   Clear
10:53 AM 82.9 °F 48.9 °F 31% 30.03 in 10.0 mi ESE 6.9 mph - N/A   Clear
11:53 AM 86.0 °F 48.9 °F 28% 30.01 in 10.0 mi Variable 5.8 mph - N/A   Clear
12:53 PM 88.0 °F 48.0 °F 25% 30.00 in 10.0 mi Variable 3.5 mph - N/A   Clear
1:53 PM 89.1 °F 48.0 °F 24% 29.97 in 10.0 mi Variable 4.6 mph - N/A   Partly Cloudy
2:53 PM 91.9 °F 48.0 °F 22% 29.95 in 10.0 mi ENE 4.6 mph - N/A   Clear
3:53 PM 93.0 °F 48.0 °F 21% 29.94 in 10.0 mi North 9.2 mph - N/A   Clear
4:53 PM 91.9 °F 48.0 °F 22% 29.94 in 10.0 mi NE 8.1 mph 17.3 mph N/A   Clear
5:53 PM 86.0 °F 48.9 °F 28% 29.95 in 10.0 mi NNW 15.0 mph 25.3 mph N/A   Clear
6:53 PM 84.0 °F 50.0 °F 31% 29.96 in 10.0 mi NW 15.0 mph - N/A   Clear
7:53 PM 82.0 °F 50.0 °F 33% 29.98 in 10.0 mi NW 11.5 mph - N/A   Overcast
8:53 PM 80.1 °F 50.0 °F 35% 30.00 in 10.0 mi NNW 10.4 mph - N/A   Partly Cloudy
9:53 PM 78.1 °F 51.1 °F 39% 30.02 in 10.0 mi NNW 9.2 mph - N/A   Clear
10:53 PM 75.9 °F 51.1 °F 42% 30.01 in 10.0 mi NNW 8.1 mph 17.3 mph N/A   Clear
11:53 PM 73.0 °F 52.0 °F 48% 30.00 in 10.0 mi NNW 6.9 mph - N/A   Clear